Location: Martin
(32.0982°N, 93.2193°W)
Time: 13:07:41
(UTC+00:00)

ACS3 Solar Sail - Visible Passes

Search period start: 19 September 2024 00:00
Search period end: 29 September 2024 00:00
Orbit: 970 x 1035 km, 97.4° (Epoch: 18 September)

Date Brightness Start Highest point End Pass type
(mag) Time Alt. Az. Time Alt. Az. Time Alt. Az.
19 Sep 1.7 02:28:00 75° E 02:28:09 75° ENE 02:34:35 10° N visible
19 Sep 4.4 04:13:15 13° W 04:13:15 13° W 04:15:29 10° WNW visible
20 Sep 3.2 01:16:11 18° E 01:17:40 19° ENE 01:22:00 10° NNE visible
20 Sep 2.4 03:01:26 57° W 03:01:26 57° W 03:07:24 10° NNW visible
21 Sep 2.4 01:49:35 36° E 01:50:12 37° ENE 01:56:00 10° N visible
21 Sep 3.5 03:34:49 28° W 03:34:49 28° W 03:39:37 10° NW visible
22 Sep 1.8 02:22:55 72° ENE 02:22:55 72° ENE 02:29:16 10° N visible
22 Sep 4.3 04:08:10 14° W 04:08:10 14° W 04:10:29 10° WNW visible
23 Sep 3.2 01:11:00 17° E 01:12:17 18° ENE 01:16:26 10° NNE visible
23 Sep 2.3 02:56:13 58° WNW 02:56:13 58° WNW 03:02:00 10° NNW visible
24 Sep 2.4 01:44:16 35° E 01:44:41 35° ENE 01:50:22 10° N visible
24 Sep 3.5 03:29:29 30° W 03:29:29 30° W 03:34:08 10° NW visible
25 Sep 1.8 02:17:28 67° ENE 02:17:28 67° ENE 02:23:33 10° N visible
25 Sep 4.3 04:02:42 14° W 04:02:42 14° W 04:05:04 10° WNW visible
26 Sep 3.3 01:05:26 16° ENE 01:06:31 17° ENE 01:10:25 10° NNE visible
26 Sep 2.3 02:50:39 59° WNW 02:50:39 59° WNW 02:56:12 10° NNW visible
27 Sep 2.5 01:38:33 33° ENE 01:38:46 33° ENE 01:44:20 10° N visible
27 Sep 3.4 03:23:47 31° WNW 03:23:47 31° WNW 03:28:15 10° NNW visible
28 Sep 1.9 02:11:39 61° NE 02:11:39 61° NE 02:17:26 10° N visible
28 Sep 4.3 03:56:52 15° WNW 03:56:52 15° WNW 03:59:15 10° NW visible
